Radiation Dose at Monitoring Post of Fukushima Daini Nuclear Power Station
Date,Time,MP-1(microSv/h),MP-2(microSv/h),MP-3(microSv/h),MP-4(microSv/h),MP-5(microSv/h),MP-6(microSv/h),MP-7(microSv/h),Wind Direction,Wind Velocity(m/s),Rain
2021/12/15,00:00,0.158,0.145,0.226,0.222,0.226,0.123,0.079,-,CALM,No
2021/12/15,00:10,0.158,0.145,0.227,0.221,0.225,0.124,0.079,southwest,1.0,No
2021/12/15,00:20,0.158,0.145,0.226,0.221,0.226,0.122,0.079,southwest,1.0,No
2021/12/15,00:30,0.159,0.143,0.226,0.221,0.225,0.124,0.079,southwest,1.1,No
2021/12/15,00:40,0.159,0.144,0.226,0.221,0.226,0.124,0.078,west-southwest,1.5,No
2021/12/15,00:50,0.158,0.144,0.226,0.222,0.225,0.123,0.079,west-southwest,3.5,No
2021/12/15,01:00,0.158,0.143,0.226,0.222,0.225,0.124,0.079,west-southwest,3.9,No
2021/12/15,01:10,0.158,0.143,0.226,0.221,0.225,0.124,0.078,west-southwest,4.0,No
2021/12/15,01:20,0.159,0.144,0.224,0.221,0.225,0.123,0.077,west-southwest,4.4,Yes
2021/12/15,01:30,0.158,0.143,0.226,0.221,0.226,0.123,0.079,southwest,5.8,Yes
2021/12/15,01:40,0.159,0.143,0.226,0.222,0.225,0.124,0.079,southwest,5.7,Yes
2021/12/15,01:50,0.157,0.144,0.226,0.221,0.224,0.124,0.078,southwest,5.3,Yes
2021/12/15,02:00,0.158,0.144,0.227,0.220,0.225,0.123,0.078,southwest,3.7,Yes
2021/12/15,02:10,0.159,0.145,0.225,0.221,0.226,0.124,0.079,southwest,4.0,Yes
2021/12/15,02:20,0.159,0.144,0.226,0.222,0.225,0.123,0.078,west-southwest,2.7,Yes
2021/12/15,02:30,0.157,0.144,0.226,0.221,0.226,0.123,0.079,west,3.2,Yes
2021/12/15,02:40,0.158,0.144,0.226,0.221,0.225,0.123,0.078,west,4.7,Yes
2021/12/15,02:50,0.159,0.143,0.227,0.221,0.225,0.123,0.079,west,4.9,Yes
2021/12/15,03:00,0.158,0.143,0.226,0.221,0.225,0.123,0.078,west,4.1,Yes
2021/12/15,03:10,0.159,0.143,0.225,0.221,0.226,0.124,0.078,west-southwest,2.3,Yes
2021/12/15,03:20,0.158,0.144,0.227,0.221,0.225,0.123,0.079,west,0.6,Yes
2021/12/15,03:30,0.159,0.144,0.226,0.222,0.227,0.124,0.079,west-northwest,0.7,Yes
2021/12/15,03:40,0.159,0.144,0.226,0.221,0.227,0.124,0.079,-,CALM,Yes
2021/12/15,03:50,0.159,0.144,0.226,0.221,0.225,0.124,0.078,-,CALM,Yes
2021/12/15,04:00,0.159,0.144,0.225,0.222,0.226,0.123,0.079,west-southwest,2.0,Yes
2021/12/15,04:10,0.157,0.143,0.226,0.221,0.226,0.124,0.079,west,2.8,No
2021/12/15,04:20,0.159,0.143,0.225,0.221,0.226,0.123,0.079,west,3.8,No
2021/12/15,04:30,0.158,0.144,0.227,0.221,0.225,0.123,0.079,west-southwest,4.6,No
2021/12/15,04:40,0.158,0.143,0.226,0.221,0.226,0.124,0.078,west-southwest,4.9,No
2021/12/15,04:50,0.157,0.144,0.226,0.222,0.226,0.123,0.079,west-southwest,7.1,Yes
2021/12/15,05:00,0.158,0.144,0.226,0.220,0.225,0.123,0.079,west-southwest,6.6,Yes
2021/12/15,05:10,0.159,0.143,0.226,0.222,0.225,0.124,0.078,west-southwest,7.4,Yes
2021/12/15,05:20,0.158,0.144,0.226,0.221,0.224,0.122,0.078,west-southwest,6.5,Yes
2021/12/15,05:30,0.159,0.144,0.226,0.221,0.226,0.123,0.078,southwest,6.1,Yes
2021/12/15,05:40,0.158,0.143,0.226,0.222,0.225,0.123,0.078,southwest,3.1,Yes
2021/12/15,05:50,0.159,0.143,0.225,0.220,0.226,0.123,0.078,southwest,3.4,No
2021/12/15,06:00,0.158,0.143,0.225,0.221,0.226,0.123,0.078,west,2.8,No
2021/12/15,06:10,0.159,0.144,0.227,0.221,0.225,0.122,0.079,west,3.2,No
2021/12/15,06:20,0.159,0.144,0.226,0.221,0.225,0.122,0.079,west,6.4,No
2021/12/15,06:30,0.159,0.143,0.226,0.220,0.225,0.123,0.079,west,6.1,No
2021/12/15,06:40,0.158,0.144,0.225,0.222,0.224,0.122,0.078,west,3.8,No
2021/12/15,06:50,0.159,0.144,0.226,0.222,0.225,0.123,0.079,west-southwest,2.6,No
2021/12/15,07:00,0.158,0.143,0.226,0.221,0.225,0.123,0.078,southwest,4.7,No
2021/12/15,07:10,0.158,0.143,0.227,0.221,0.226,0.123,0.078,southwest,6.1,No
2021/12/15,07:20,0.158,0.144,0.225,0.221,0.226,0.124,0.079,southwest,5.9,No
2021/12/15,07:30,0.158,0.144,0.226,0.220,0.225,0.123,0.079,southwest,4.5,No
2021/12/15,07:40,0.158,0.144,0.227,0.221,0.226,0.123,0.079,south-southwest,3.7,No
2021/12/15,07:50,0.158,0.144,0.226,0.221,0.226,0.123,0.078,southwest,2.9,No
2021/12/15,08:00,0.158,0.144,0.225,0.221,0.226,0.122,0.078,southwest,3.2,No
2021/12/15,08:10,0.158,0.145,0.226,0.221,0.225,0.124,0.079,southwest,3.0,No
2021/12/15,08:20,0.158,0.145,0.225,0.221,0.225,0.124,0.078,southwest,3.4,No
2021/12/15,08:30,0.158,0.144,0.226,0.219,0.226,0.123,0.078,west-southwest,3.8,No
2021/12/15,08:40,0.159,0.144,0.225,0.220,0.225,0.123,0.079,west,2.8,No
2021/12/15,08:50,0.158,0.145,0.226,0.220,0.226,0.123,0.078,west-southwest,1.7,No
2021/12/15,09:00,0.158,0.143,0.225,0.221,0.225,0.123,0.079,-,CALM,No
2021/12/15,09:10,0.159,0.145,0.225,0.221,0.225,0.122,0.078,southeast,1.9,No
2021/12/15,09:20,0.159,0.144,0.226,0.220,0.226,0.123,0.079,southeast,1.3,No
2021/12/15,09:30,0.158,0.143,0.225,0.221,0.225,0.124,0.078,east-southeast,1.3,No
2021/12/15,09:40,0.159,0.143,0.226,0.219,0.226,0.123,0.079,-,CALM,No
2021/12/15,09:50,0.159,0.143,0.226,0.222,0.226,0.124,0.079,south-southwest,0.9,No
2021/12/15,10:00,0.159,0.144,0.226,0.220,0.225,0.123,0.078,west-southwest,0.9,No
2021/12/15,10:10,0.158,0.143,0.225,0.222,0.225,0.123,0.078,west,2.9,No
2021/12/15,10:20,0.157,0.144,0.226,0.219,0.225,0.124,0.078,west,2.8,No
2021/12/15,10:30,0.158,0.143,0.223,0.221,0.226,0.123,0.079,west-southwest,2.2,No
2021/12/15,10:40,0.158,0.144,0.225,0.220,0.227,0.123,0.078,west-southwest,3.7,No
2021/12/15,10:50,0.159,0.143,0.224,0.221,0.224,0.123,0.079,west-southwest,4.0,No
2021/12/15,11:00,0.158,0.143,0.225,0.219,0.225,0.124,0.078,west-southwest,6.3,No
2021/12/15,11:10,0.157,0.144,0.225,0.222,0.225,0.124,0.079,west-southwest,5.7,No
2021/12/15,11:20,0.159,0.143,0.226,0.220,0.226,0.124,0.078,west,7.5,No
2021/12/15,11:30,0.158,0.142,0.226,0.222,0.225,0.124,0.079,west,9.0,No
2021/12/15,11:40,0.157,0.144,0.225,0.220,0.223,0.124,0.079,west,8.1,No
2021/12/15,11:50,0.158,0.144,0.226,0.221,0.227,0.124,0.078,west,5.8,No
2021/12/15,12:00,0.157,0.144,0.226,0.221,0.224,0.123,0.079,west,8.5,No
2021/12/15,12:10,0.158,0.144,0.227,0.222,0.226,0.124,0.079,west-northwest,7.6,No
2021/12/15,12:20,0.158,0.145,0.226,0.220,0.226,0.124,0.079,west-northwest,7.5,No
2021/12/15,12:30,0.159,0.143,0.226,0.222,0.225,0.123,0.079,west-northwest,6.4,No
2021/12/15,12:40,0.158,0.145,0.225,0.220,0.226,0.123,0.079,west,6.8,No
2021/12/15,12:50,0.158,0.145,0.226,0.222,0.226,0.123,0.078,west-northwest,6.8,No
2021/12/15,13:00,0.157,0.144,0.225,0.219,0.227,0.123,0.078,northwest,2.6,No
2021/12/15,13:10,0.158,0.143,0.227,0.222,0.226,0.124,0.078,west-northwest,4.2,No
2021/12/15,13:20,0.159,0.144,0.227,0.220,0.227,0.123,0.078,west,5.8,No
2021/12/15,13:30,0.158,0.143,0.227,0.221,0.227,0.124,0.079,west,5.6,No
2021/12/15,13:40,0.158,0.144,0.226,0.220,0.226,0.124,0.079,west-northwest,5.2,No
2021/12/15,13:50,0.158,0.143,0.227,0.221,0.226,0.123,0.079,west-northwest,4.9,No
2021/12/15,14:00,0.159,0.144,0.225,0.221,0.225,0.123,0.078,west-northwest,9.2,No
2021/12/15,14:10,0.158,0.144,0.227,0.222,0.226,0.123,0.078,west-northwest,8.4,No
2021/12/15,14:20,0.159,0.145,0.227,0.222,0.226,0.124,0.078,northwest,8.5,No
2021/12/15,14:30,0.160,0.145,0.227,0.223,0.228,0.124,0.078,west-northwest,4.8,No
2021/12/15,14:40,0.159,0.144,0.226,0.222,0.225,0.122,0.079,northwest,5.2,No
2021/12/15,14:50,0.159,0.145,0.228,0.222,0.227,0.124,0.079,west-northwest,3.2,No
2021/12/15,15:00,0.160,0.144,0.227,0.222,0.225,0.123,0.078,north-northwest,3.7,No
2021/12/15,15:10,0.158,0.144,0.226,0.222,0.227,0.122,0.078,northwest,3.3,No
2021/12/15,15:20,0.160,0.145,0.227,0.223,0.226,0.123,0.079,northwest,2.6,No
2021/12/15,15:30,0.158,0.144,0.227,0.221,0.226,0.123,0.079,northwest,3.8,No
2021/12/15,15:40,0.158,0.145,0.226,0.222,0.227,0.123,0.078,northwest,4.9,No
2021/12/15,15:50,0.160,0.145,0.226,0.223,0.226,0.123,0.079,west-northwest,5.5,No
2021/12/15,16:00,0.158,0.144,0.227,0.221,0.228,0.124,0.079,northwest,7.1,No
2021/12/15,16:10,0.159,0.145,0.226,0.224,0.226,0.124,0.079,northwest,5.1,No
2021/12/15,16:20,0.159,0.144,0.227,0.221,0.226,0.122,0.079,west-northwest,5.9,No
2021/12/15,16:30,0.158,0.145,0.227,0.222,0.227,0.124,0.078,northwest,5.1,No
2021/12/15,16:40,0.159,0.143,0.226,0.222,0.226,0.124,0.078,west-northwest,3.7,No
2021/12/15,16:50,0.159,0.144,0.227,0.222,0.226,0.124,0.079,west-northwest,4.7,No
2021/12/15,17:00,0.158,0.145,0.227,0.222,0.227,0.124,0.079,west-northwest,6.0,No
2021/12/15,17:10,0.159,0.145,0.227,0.222,0.226,0.123,0.079,west-northwest,8.1,No
2021/12/15,17:20,0.159,0.145,0.227,0.222,0.226,0.124,0.079,west-northwest,5.4,No
2021/12/15,17:30,0.159,0.144,0.227,0.222,0.225,0.124,0.079,northwest,4.8,No
2021/12/15,17:40,0.159,0.144,0.225,0.222,0.225,0.124,0.079,west-northwest,8.1,No
2021/12/15,17:50,0.160,0.145,0.227,0.222,0.226,0.124,0.079,west,6.7,No
2021/12/15,18:00,0.158,0.143,0.227,0.221,0.226,0.124,0.079,west,8.8,No
2021/12/15,18:10,0.159,0.145,0.227,0.222,0.226,0.123,0.079,west,6.5,No
2021/12/15,18:20,0.159,0.144,0.227,0.223,0.226,0.124,0.079,west,6.4,No
2021/12/15,18:30,0.159,0.144,0.227,0.222,0.225,0.124,0.079,west-northwest,6.4,No
2021/12/15,18:40,0.159,0.144,0.228,0.222,0.226,0.123,0.079,west-northwest,4.4,No
2021/12/15,18:50,0.160,0.144,0.227,0.222,0.226,0.124,0.079,west-northwest,1.8,No
2021/12/15,19:00,0.158,0.144,0.227,0.220,0.225,0.124,0.079,-,CALM,No
2021/12/15,19:10,0.160,0.145,0.226,0.222,0.225,0.124,0.079,east-northeast,0.8,No
2021/12/15,19:20,0.160,0.144,0.227,0.222,0.225,0.124,0.079,north,0.9,No
2021/12/15,19:30,0.159,0.144,0.227,0.222,0.225,0.124,0.079,north-northwest,1.7,No
2021/12/15,19:40,0.158,0.144,0.228,0.221,0.226,0.123,0.079,north-northwest,4.4,No
2021/12/15,19:50,0.159,0.145,0.226,0.222,0.225,0.123,0.078,west-northwest,6.2,No
2021/12/15,20:00,0.160,0.145,0.227,0.223,0.226,0.124,0.079,west-northwest,6.0,No
2021/12/15,20:10,0.159,0.144,0.228,0.221,0.226,0.124,0.079,west-northwest,7.3,No
2021/12/15,20:20,0.159,0.144,0.227,0.222,0.225,0.123,0.078,west-northwest,7.5,No
2021/12/15,20:30,0.159,0.144,0.227,0.223,0.226,0.123,0.079,west,6.4,No
2021/12/15,20:40,0.158,0.144,0.228,0.223,0.227,0.123,0.079,west,5.1,No
2021/12/15,20:50,0.160,0.145,0.228,0.221,0.226,0.124,0.079,west,3.7,No
2021/12/15,21:00,0.159,0.145,0.227,0.222,0.226,0.123,0.079,west-southwest,2.9,No
2021/12/15,21:10,0.159,0.144,0.226,0.221,0.226,0.124,0.079,west-southwest,2.4,No
2021/12/15,21:20,0.158,0.143,0.227,0.222,0.226,0.124,0.079,west,3.2,No
2021/12/15,21:30,0.159,0.144,0.228,0.222,0.226,0.124,0.079,west,3.3,No
2021/12/15,21:40,0.158,0.145,0.226,0.222,0.227,0.123,0.079,west-northwest,4.4,No
2021/12/15,21:50,0.159,0.144,0.227,0.222,0.226,0.124,0.079,north-northwest,3.3,No
2021/12/15,22:00,0.159,0.144,0.227,0.222,0.226,0.123,0.079,northwest,3.1,No
2021/12/15,22:10,0.159,0.145,0.228,0.223,0.228,0.124,0.079,west-northwest,2.9,No
2021/12/15,22:20,0.158,0.146,0.227,0.222,0.226,0.123,0.079,west-northwest,3.0,No
2021/12/15,22:30,0.159,0.144,0.227,0.222,0.226,0.123,0.080,west-northwest,2.1,No
2021/12/15,22:40,0.159,0.144,0.227,0.223,0.225,0.124,0.080,west-northwest,1.7,No
2021/12/15,22:50,0.160,0.144,0.228,0.221,0.225,0.124,0.079,west-northwest,5.3,No
2021/12/15,23:00,0.158,0.145,0.227,0.222,0.226,0.124,0.080,west-northwest,7.3,No
2021/12/15,23:10,0.159,0.145,0.226,0.222,0.225,0.124,0.079,west-northwest,7.4,No
2021/12/15,23:20,0.159,0.144,0.227,0.222,0.226,0.123,0.079,west-northwest,6.6,No
2021/12/15,23:30,0.158,0.144,0.227,0.221,0.226,0.123,0.079,west-northwest,6.0,No
2021/12/15,23:40,0.159,0.144,0.227,0.221,0.226,0.124,0.078,west-northwest,5.6,No
2021/12/15,23:50,0.159,0.145,0.227,0.222,0.226,0.122,0.079,west-northwest,5.1,No
